** Reindexing in progress, block data might not be up to date **

Address 0xaf4441dc30ed48e8127e18bdd59d49471f2bcb8f 1

 
 
Txn Hash Method
Block
From
To
Value [Txn Fee]
0x5b3b90e108bd144a3ee8a6e94836ba009785bd44d26215cb574f8b7a639bfbc6Transfer139982202022-01-01 23:49:4017 days 2 hrs ago0xaf4441dc30ed48e8127e18bdd59d49471f2bcb8fOUT0x872494573ac0cbe71589ed83280140dbec469a1c0.319004645174853 BNB0.000105
0xaf543f8eff52b4508a7d298278451fe887cc1a78719cb851f866db77fb5bcc64Swap139430532021-12-31 1:48:1319 days 37 mins ago0xaf4441dc30ed48e8127e18bdd59d49471f2bcb8fOUT Metamask: Swap Router0 BNB0.00084603
0x59fe80360e5876bc1e47a6532aac3995e17c8ea0657236d113ebc58381c01eeaApprove139430522021-12-31 1:48:1019 days 37 mins ago0xaf4441dc30ed48e8127e18bdd59d49471f2bcb8fOUT PancakeSwap: CAKE Token0 BNB0.00022215
0x469215eb804351e70f29408b395019c1cd4889982a0ecad02d245725a3f35441Approve139429812021-12-31 1:44:3719 days 41 mins ago0xaf4441dc30ed48e8127e18bdd59d49471f2bcb8fOUT PancakeSwap: CAKE Token0 BNB0.00012609
0x8974baea0a6ba17dbdce42f7b108b976a5cda6da56efb0bcee9498cdce6de522Approve139429102021-12-31 1:41:0419 days 44 mins ago0xaf4441dc30ed48e8127e18bdd59d49471f2bcb8fOUT PancakeSwap: CAKE Token0 BNB0.00022209
0x3a4afcfbb170088a3716e35a14fae18b34927d45514face551c8ef044f76a229Approve139428852021-12-31 1:39:4919 days 46 mins ago0xaf4441dc30ed48e8127e18bdd59d49471f2bcb8fOUT PancakeSwap: CAKE Token0 BNB0.00022215
0x4d0fbc41fac1afc01c1b62c0d900886c7d548b0c03abc9fb7d262b87ad65d097Swap Exact ETH F...139427092021-12-31 1:31:0119 days 54 mins ago0xaf4441dc30ed48e8127e18bdd59d49471f2bcb8fOUT PancakeSwap: Router v20.31481928 BNB0.00053634
0x567d1d4e2c02bec1b9fabbf8a9c9892f070ed84b2a496e412df65e40ab87de62Transfer139426482021-12-31 1:27:5819 days 57 mins agoBinance: Hot Wallet 7 IN 0xaf4441dc30ed48e8127e18bdd59d49471f2bcb8f0.2995 BNB0.00021
0x638d5488157003d8abed9b1077df98b29f678e52b981e5d9ba21a82f91f0e3faHarvest139424822021-12-31 1:19:4019 days 1 hr ago0xaf4441dc30ed48e8127e18bdd59d49471f2bcb8fOUT PancakeSwap: Auto CAKE Syrup Pool0 BNB0.000801425
0x4e2a1190b7b64cc28730dfbcc148e9da02d18b458144e0f7e0d120637136d0b3Harvest138262452021-12-27 0:20:3023 days 2 hrs ago0xaf4441dc30ed48e8127e18bdd59d49471f2bcb8fOUT PancakeSwap: Auto CAKE Syrup Pool0 BNB0.00112686
0xc310babce1fd9a8dc107bf069ae51bb6b4a53eae4a1561bf58b181f933b3e2a1Approve138242772021-12-26 22:42:0623 days 3 hrs ago0xaf4441dc30ed48e8127e18bdd59d49471f2bcb8fOUT PancakeSwap: CAKE Token0 BNB0.00022215
0xd3453f7446d7029832794191f26eea9e04f07396392025891977513bd08e4d1aApprove121023382021-10-26 8:37:1884 days 17 hrs ago0xaf4441dc30ed48e8127e18bdd59d49471f2bcb8fOUT 0x0ed7e52944161450477ee417de9cd3a859b14fd00 BNB0.00022221
0xec711a286514f505c4fba762b5824a582e195bff1b3a7afa75e4d8e54f506ab6Transfer118093912021-10-16 1:35:2995 days 50 mins ago0xaf4441dc30ed48e8127e18bdd59d49471f2bcb8fOUT 0xf50d6ef07970fae2176af77fd3abe33be5aa59a80 BNB0.00018131
0x10cef2897e1f418a49da42c91870c0298330d0630ee53d69233bf1d170021ba3Transfer74303552021-05-15 12:02:27248 days 14 hrs ago0xaf4441dc30ed48e8127e18bdd59d49471f2bcb8fOUT 0xf50d6ef07970fae2176af77fd3abe33be5aa59a80 BNB0.00025631
0x1354a78e7f9051c7ce30abe4bfb0e89a9b3162b352be7bca84fa401e963ff482Transfer74299322021-05-15 11:41:13248 days 14 hrs ago0xaf4441dc30ed48e8127e18bdd59d49471f2bcb8fOUT 0xf50d6ef07970fae2176af77fd3abe33be5aa59a80 BNB0.00018131
0xb6322c1918d04096f5e162e6fb044b8d5e761eb74f964cf395e36cb9e4d85279Transfer74298592021-05-15 11:37:28248 days 14 hrs ago0xaf4441dc30ed48e8127e18bdd59d49471f2bcb8fOUT 0xf50d6ef07970fae2176af77fd3abe33be5aa59a80 BNB0.00025637
0x8a1802cef91689a203863566e57cdb4ab27f2b102ac93920e46bad6fbae0a86bTransfer70648152021-05-02 6:04:40261 days 20 hrs ago0xaf4441dc30ed48e8127e18bdd59d49471f2bcb8fOUT 0xf50d6ef07970fae2176af77fd3abe33be5aa59a80 BNB0.00051262
0x151156e27756cdf1659d2a8711f48e49cbcfd124249f34181d043385b590c046Transfer69836962021-04-29 9:39:09264 days 16 hrs ago0xaf4441dc30ed48e8127e18bdd59d49471f2bcb8fOUT PancakeSwap: CAKE Token0 BNB0.000180695
0x418964e29e4bb6fcc1bc320268f51db06eccf00dd269cfa70c38b65ce280cf18Transfer69836792021-04-29 9:38:18264 days 16 hrs ago0xaf4441dc30ed48e8127e18bdd59d49471f2bcb8fOUT0x872494573ac0cbe71589ed83280140dbec469a1c0.22 BNB0.000105
0xd55a5afe892925ed86a07e02cf9ae7a4ae7d8083d06bc74fc134abbad128dfadApprove65748602021-04-15 2:12:11279 days 13 mins ago0xaf4441dc30ed48e8127e18bdd59d49471f2bcb8fOUT PancakeSwap: CAKE Token0 BNB0.00022215
0xee92683ac9e691639342694a25df4bc3be3279161305889d1313fc88390325d0Approve65558582021-04-14 10:20:56279 days 16 hrs ago0xaf4441dc30ed48e8127e18bdd59d49471f2bcb8fOUT PancakeSwap: CAKE Token0 BNB0.00022215
0xe708046d2fa0fa5646a56f90402b045c26940a95ffa9f7736efd74b4e887e2e0Swap Exact ETH F...65558452021-04-14 10:20:17279 days 16 hrs ago0xaf4441dc30ed48e8127e18bdd59d49471f2bcb8fOUT PancakeSwap: Router0.1 BNB0.000880195
0x5c246856d0771f99480d35ddc8ddb911c106ce35de57c660c165efcbd451b198Transfer65528302021-04-14 7:49:31279 days 18 hrs ago0xce648ae0aad53c3d3ea797a8eda5a74a928f0134 IN 0xaf4441dc30ed48e8127e18bdd59d49471f2bcb8f0.01 BNB0.000105
0xa01bd9f0514beba14d0f28f7461c693018c4b5e61c3764c70ae0122047c2cfb6Transfer65181182021-04-13 2:53:24280 days 23 hrs ago0xaf4441dc30ed48e8127e18bdd59d49471f2bcb8fOUT 0xf50d6ef07970fae2176af77fd3abe33be5aa59a80 BNB0.00018131
0xe3820fcb29a3bba0cf3f1e9f245316687f58abc4f039e19b8049450747475e93Transfer65138492021-04-12 23:19:55281 days 3 hrs ago0xaf4441dc30ed48e8127e18bdd59d49471f2bcb8fOUT 0xf50d6ef07970fae2176af77fd3abe33be5aa59a80 BNB0.00025637
[ Download CSV Export 
Latest 1 internal transaction
Parent Txn Hash Block From To Value
0xaf543f8eff52b4508a7d298278451fe887cc1a78719cb851f866db77fb5bcc64139430532021-12-31 1:48:1319 days 37 mins ago 0xc590175e458b83680867afd273527ff58f74c02b0xaf4441dc30ed48e8127e18bdd59d49471f2bcb8f0.311284495174853067 BNB
[ Download CSV Export 
Loading

Contract Name:
0 BNB

Compiler Version
0

Optimization Enabled:
0 BNB

Other Settings:
-NA-
Block Transaction Gas Used Reward
Age Block Fee Address BC Fee Address Voting Power Jailed Incoming
Block Uncle Number Difficulty Gas Used Reward
Loading
Loading
Make sure to use the "Vote Down" button for any spammy posts, and the "Vote Up" for interesting conversations.